Location: Unspecified
(33.7243°N, 0.0000°E)
Time: 03:07:25
(UTC+00:00)

NOAA 16 DEB - Visible Passes

Search period start: 04 April 2026 00:00
Search period end: 14 April 2026 00:00
Orbit: 811 x 924 km, 98.9° (Epoch: 25 March)

Date Brightness Start Highest point End Pass type
(mag) Time Alt. Az. Time Alt. Az. Time Alt. Az.
4 Apr ? 02:34:57 10° NE 02:39:39 24° E 02:41:00 22° ESE visible
4 Apr ? 04:15:15 10° N 04:20:43 41° WNW 04:23:23 26° WSW visible
5 Apr ? 02:28:23 10° NE 02:32:43 21° E 02:34:10 19° ESE visible
5 Apr ? 04:08:16 10° N 04:13:53 47° WNW 04:16:32 28° SW visible
6 Apr ? 02:21:53 10° NE 02:25:46 18° E 02:27:20 16° ESE visible
6 Apr ? 04:01:18 10° N 04:07:01 54° WNW 04:09:42 31° SW visible
7 Apr ? 02:15:30 10° ENE 02:18:48 15° E 02:20:27 14° ESE visible
7 Apr ? 03:54:21 10° N 04:00:10 63° WNW 04:02:50 32° SW visible
8 Apr ? 02:09:17 10° ENE 02:11:49 13° E 02:13:36 11° ESE visible
8 Apr ? 03:47:26 10° N 03:53:18 72° WNW 03:55:57 34° SSW visible
9 Apr ? 02:03:36 10° ENE 02:04:49 11° E 02:06:02 10° ESE visible
9 Apr ? 03:40:30 10° NNE 03:46:24 83° WNW 03:49:05 34° SSW visible
10 Apr ? 03:33:35 10° NNE 03:39:30 86° ESE 03:42:12 34° S visible
11 Apr ? 03:26:41 10° NNE 03:32:35 75° ESE 03:35:17 33° S visible
12 Apr ? 03:19:49 10° NNE 03:25:39 65° ESE 03:28:23 32° S visible
12 Apr ? 05:02:35 10° NNW 05:06:01 16° WNW 05:09:25 10° W visible
13 Apr ? 03:12:57 10° NNE 03:18:42 55° E 03:21:27 30° SSE visible
13 Apr ? 04:55:17 10° NNW 04:59:10 19° WNW 05:03:02 10° WSW visible
